Location: Ladd Observatory
(41.8387°N, 71.3996°W)
Time: 07:51:46
(UTC-04:00)

ISS - Visible Passes

Search period start: 01 August 2014 00:00
Search period end: 11 August 2014 00:00
Orbit: 411 x 419 km, 51.6° (Epoch: 01 August)

Date Brightness Start Highest point End Pass type
(mag) Time Alt. Az. Time Alt. Az. Time Alt. Az.
01 Aug -0.1 01:22:53 16° N 01:22:53 16° N 01:24:33 10° NE visible
01 Aug -0.5 02:57:29 10° NW 03:00:01 19° NNE 03:02:34 10° ENE visible
01 Aug -3.0 04:33:50 10° NW 04:37:12 71° NNE 04:40:33 10° ESE visible
02 Aug -0.3 02:09:02 12° NNW 02:10:57 17° N 02:13:14 10° NE visible
02 Aug -2.0 03:45:04 10° NW 03:48:18 44° NNE 03:51:32 10° ESE visible
02 Aug -1.2 20:30:07 10° SE 20:30:55 11° SE 20:31:43 10° ESE visible
02 Aug -3.4 22:03:48 10° SW 22:07:07 89° NW 22:07:59 47° NE visible
03 Aug 0.0 01:23:17 13° NNE 01:23:17 13° NNE 01:23:57 10° NE visible
03 Aug -1.3 02:56:19 10° NW 02:59:21 30° NNE 03:02:22 10° E visible
03 Aug -2.9 04:32:56 10° WNW 04:36:08 42° SW 04:39:20 10° SSE visible
03 Aug -3.2 21:15:04 10° SW 21:18:18 51° SE 21:21:34 10° ENE visible
03 Aug -1.1 22:52:15 10° W 22:55:10 27° NNW 22:57:00 17° NNE visible
04 Aug -0.1 02:12:52 11° ENE 02:12:52 11° ENE 02:13:04 10° ENE visible
04 Aug -3.4 03:46:03 35° WNW 03:47:20 76° SW 03:50:41 10° SE visible
04 Aug -1.8 22:03:02 10° W 22:06:11 38° NNW 22:09:20 10° NE visible
04 Aug -0.3 23:41:23 10° NW 23:43:35 16° N 23:43:47 16° N visible
05 Aug -2.7 21:13:57 10° WSW 21:17:14 59° NNW 21:20:33 10° NE visible
05 Aug -0.4 22:52:03 10° WNW 22:54:28 18° NNW 22:56:54 10° NE visible
06 Aug -3.3 20:25:01 10° SW 20:28:20 82° SE 20:31:41 10° ENE visible
06 Aug -0.7 22:02:41 10° WNW 22:05:22 22° NNW 22:08:05 10° NE visible
06 Aug -0.2 23:40:54 10° NW 23:42:37 15° N 23:42:37 15° N visible
07 Aug -1.2 21:13:21 10° W 21:16:19 29° NNW 21:19:17 10° NE visible
07 Aug -0.3 22:51:45 10° NW 22:53:50 15° N 22:55:23 12° NNE visible
08 Aug -1.9 20:24:07 10° W 20:27:18 41° NNW 20:30:29 10° NE visible
08 Aug -0.3 22:02:26 10° NW 22:04:40 16° N 22:06:54 10° NNE visible
08 Aug -0.1 23:39:55 10° NNW 23:40:57 15° NNW 23:40:57 15° NNW visible
09 Aug -0.5 21:13:03 10° WNW 21:15:31 19° NNW 21:18:00 10° NE visible
09 Aug -0.5 22:51:00 10° NW 22:53:10 16° N 22:53:38 16° NNE visible
10 Aug -0.9 20:23:39 10° WNW 20:26:24 23° NNW 20:29:09 10° NE visible
10 Aug -0.4 22:01:56 10° NW 22:04:00 15° N 22:06:03 10° NE visible
10 Aug 0.0 23:38:38 10° NW 23:39:09 13° NNW 23:39:09 13° NNW visible
